Change the Weather History Date:

Tuesday, February 4, 2014

  Actual Average Record
Temperature  
Mean Temperature 56 °F -  
Max Temperature 65 °F 68 °F 78 °F (2004)
Min Temperature 46 °F 46 °F 35 °F (2011)
Degree Days  
Heating Degree Days 10    
Growing Degree Days 6 (Base 50)    
Moisture  
Dew Point 49 °F    
Average Humidity 78    
Maximum Humidity 100    
Minimum Humidity 49    
Precipitation  
Precipitation 0.00 in 0.05 in - ()
Sea Level Pressure  
Sea Level Pressure 30.12 in    
Wind  
Wind Speed 4 mph ()    
Max Wind Speed 9 mph    
Max Gust Speed -    
Visibility 5.6 miles    
Events      
Averages and records for this station are not official NWS values.
T = Trace of Precipitation, MM = Missing Value Source: Averaged Metar Reports

Daily Weather History Graph

Daily Weather History Graph

Search for Another Location

Airport or City:

Trip Planner

Search our weather history database for the weather conditions in past years. The results will help you decide how hot, cold, wet, or windy it might be!

Date:

Astronomy

Feb. 04, 2014 Rise Set
Actual Time 7:23 AM WET 6:09 PM WET
Civil Twilight 6:57 AM WET 6:34 PM WET
Nautical Twilight 6:28 AM WET 7:03 PM WET
Astronomical Twilight 6:00 AM WET 7:32 PM WET
Moon 10:15 AM WET (2/4) 11:24 PM WET (2/4)
Length of Visible Light 11h 36m
Length of Day
10h 46m
Waxing Crescent, 27% of the Moon is Illuminated
Feb 4
Waxing Crescent
Feb 6
First Quarter
Feb 14
Full
Feb 22
Last Quarter
Mar 1
New

Hourly Weather History & Observations

Time (WET) Temp. Dew Point Humidity Pressure Visibility Wind Dir Wind Speed Gust Speed Precip Events Conditions
12:00 AM 53 °F 49 °F 80% 30.15 in 6 mi SW 6.9 mph - -   Mostly Cloudy
12:00 AM 53.6 °F 48.2 °F 82% 30.15 in 6.2 mi SW 6.9 mph - N/A   Mostly Cloudy
12:30 AM 53.6 °F 48.2 °F 82% 30.15 in 6.2 mi SW 4.6 mph - N/A   Mostly Cloudy
1:00 AM 53.6 °F 48.2 °F 82% 30.12 in 6.2 mi SW 4.6 mph - N/A   Mostly Cloudy
1:30 AM 53.6 °F 48.2 °F 82% 30.12 in 6.2 mi SW 3.5 mph - N/A   Unknown
2:00 AM 53.6 °F 48.2 °F 82% 30.12 in 6.2 mi SW 3.5 mph - N/A   Unknown
2:30 AM 50.0 °F 48.2 °F 94% 30.12 in 6.2 mi WSW 1.2 mph - N/A   Unknown
3:00 AM 49 °F 47 °F 92% 30.13 in 6 mi Calm Calm - -  
3:00 AM 50.0 °F 48.2 °F 94% 30.12 in 6.2 mi Calm Calm - N/A   Unknown
3:30 AM 48.2 °F 46.4 °F 93% 30.12 in 6.2 mi WSW 3.5 mph - N/A   Unknown
4:00 AM 48.2 °F 46.4 °F 93% 30.12 in 6.2 mi Calm Calm - N/A   Scattered Clouds
4:30 AM 48.2 °F 46.4 °F 93% 30.12 in 6.2 mi South 2.3 mph - N/A   Scattered Clouds
5:00 AM 48.2 °F 46.4 °F 93% 30.12 in 6.2 mi South 3.5 mph - N/A   Unknown
5:30 AM 48.2 °F 46.4 °F 93% 30.09 in 6.2 mi SSE 3.5 mph - N/A   Unknown
6:00 AM 48 °F 46 °F 90% 30.12 in 6 mi SSE 4.6 mph - -   Partly Cloudy
6:00 AM 48.2 °F 46.4 °F 93% 30.09 in 6.2 mi South 4.6 mph - N/A   Scattered Clouds
7:00 AM 46.4 °F 46.4 °F 100% 30.09 in 6.2 mi Variable 2.3 mph - N/A   Scattered Clouds
7:30 AM 48.2 °F 46.4 °F 93% 30.09 in 6.2 mi NNW 3.5 mph - N/A   Scattered Clouds
7:41 AM 48.2 °F 46.4 °F 93% 30.09 in 1.9 mi North 4.6 mph - N/A   Smoke
8:00 AM 48.2 °F 46.4 °F 93% 30.12 in 1.2 mi North 5.8 mph - N/A   Smoke
8:10 AM 48.2 °F 46.4 °F 93% 30.12 in 3.7 mi ENE 3.5 mph - N/A   Unknown
8:46 AM 50 °F 48 °F 89% 30.14 in 4 mi ESE 6.9 mph - -   Partly Cloudy
9:00 AM 50.0 °F 48.2 °F 94% 30.12 in 3.7 mi ESE 6.9 mph - N/A   Unknown
9:30 AM 53.6 °F 50.0 °F 88% 30.12 in - Calm Calm - N/A   Clear
10:00 AM 55.4 °F 50.0 °F 82% 30.15 in - NNW 3.5 mph - N/A   Clear
10:30 AM 57.2 °F 50.0 °F 77% 30.15 in 5.6 mi NW 3.5 mph - N/A   Unknown
11:00 AM 57.2 °F 50.0 °F 77% 30.15 in 5.6 mi NNW 3.5 mph - N/A   Unknown
11:30 AM 59.0 °F 50.0 °F 72% 30.15 in 5.6 mi NW 4.6 mph - N/A   Unknown
12:00 PM 59 °F 49 °F 62% 30.13 in 6 mi WSW 3.5 mph - -   Clear
12:00 PM 59.0 °F 48.2 °F 67% 30.12 in - WSW 4.6 mph - N/A   Clear
12:30 PM 60.8 °F 50.0 °F 68% 30.12 in - Variable 2.3 mph - N/A   Clear
1:00 PM 62.6 °F 50.0 °F 63% 30.12 in - Variable 2.3 mph - N/A   Clear
1:30 PM 64.4 °F 50.0 °F 59% 30.09 in - Variable 1.2 mph - N/A   Clear
2:00 PM 64.4 °F 51.8 °F 64% 30.06 in - Variable 3.5 mph - N/A   Clear
2:30 PM 64.4 °F 50.0 °F 59% 30.06 in - Variable 3.5 mph - N/A   Clear
3:00 PM 65 °F 51 °F 49% 30.05 in 6 mi NW 9.2 mph - -   Clear
3:00 PM 64.4 °F 51.8 °F 64% 30.09 in - NW 8.1 mph - N/A   Clear
3:30 PM 66.2 °F 51.8 °F 60% 30.06 in 6.2 mi WNW 6.9 mph - N/A   Unknown
4:00 PM 66.2 °F 50.0 °F 56% 30.09 in - WNW 8.1 mph - N/A   Clear
4:30 PM 64.4 °F 50.0 °F 59% 30.09 in - West 5.8 mph - N/A   Clear
5:00 PM 64.4 °F 48.2 °F 56% 30.09 in - West 8.1 mph - N/A   Clear
5:30 PM 64.4 °F 48.2 °F 56% 30.09 in - West 9.2 mph - N/A   Clear
6:00 PM 62 °F 48 °F 50% 30.08 in 6 mi WNW 5.8 mph - -   Clear
6:00 PM 62.6 °F 48.2 °F 59% 30.09 in - WNW 6.9 mph - N/A   Clear
6:30 PM 60.8 °F 48.2 °F 63% 30.12 in - WNW 4.6 mph - N/A   Clear
7:00 PM 60.8 °F 48.2 °F 63% 30.12 in - WNW 5.8 mph - N/A   Clear
7:30 PM 57.2 °F 50.0 °F 77% 30.12 in - West 5.8 mph - N/A   Clear
8:00 PM 57.2 °F 50.0 °F 77% 30.15 in - WSW 4.6 mph - N/A   Clear
8:30 PM 55.4 °F 50.0 °F 82% 30.15 in - SW 3.5 mph - N/A   Clear
9:00 PM 56 °F 49 °F 72% 30.15 in 6 mi SW 6.9 mph - -  
9:00 PM 55.4 °F 50.0 °F 82% 30.15 in - SW 6.9 mph - N/A   Clear
9:30 PM 55.4 °F 50.0 °F 82% 30.15 in - SW 6.9 mph - N/A   Clear
10:00 PM 53.6 °F 48.2 °F 82% 30.15 in - SW 5.8 mph - N/A   Clear
10:30 PM 53.6 °F 50.0 °F 88% 30.18 in - SW 6.9 mph - N/A   Clear
11:00 PM 51.8 °F 50.0 °F 94% 30.18 in - WSW 4.6 mph - N/A   Clear
11:30 PM 51.8 °F 50.0 °F 94% 30.18 in - SW 6.9 mph - N/A   Clear